Regional Weather Roundup
Issued by NWS

Home | Current Version | Previous Version | Graphics & Text | Print | Product List | Glossary On
Versions: 1 2 3 4 5 6 7 8 9 10 11 12 13 14 15 16 17 18 19 20 21 22 23 24 25 26 27 28 29 30 31 32 33 34 35 36 37 38 39 40 41 42 43 44 45 46 47 48 49 50
000
ASUS43 KDTX 231510
RWRMI
MICHIGAN HOURLY REGIONAL WEATHER ROUNDUP
NATIONAL WEATHER SERVICE DETROIT/PONTIAC MI
1100 AM EDT SUN APR 23 2017

NOTE: "FAIR" INDICATES FEW OR NO CLOUDS BELOW 12,000 FEET WITH NO
SIGNIFICANT WEATHER AND/OR OBSTRUCTION TO VISIBILITY.

MIZ047>049-052>055-059>063-066>070-074>076-081>083-231600-
SOUTHEAST LOWER MICHIGAN

CITY           SKY/WX    TMP DP  RH WIND       PRES   REMARKS
ADRIAN         SUNNY     58  36  43 N5        30.13F
ALMA           SUNNY     60  31  34 W10       30.12S
ANN ARBOR      SUNNY     58  36  43 CALM      30.13S
BAD AXE        SUNNY     58  32  36 SW12      30.10S
CARO           SUNNY     60  33  36 W12       30.10F
DETROIT CITY   SUNNY     57  33  40 CALM      30.14S
DETROIT        MOSUNNY   58  33  39 CALM      30.14F
FLINT          SUNNY     61  35  37 W10       30.12S
GROSSE ILE     SUNNY     54  23  30 CALM      30.13S
HILLSDALE      SUNNY     59  34  38 N6        30.12F
HOWELL         SUNNY     59  29  31 W6        30.12F

CITY           SKY/WX    TMP DP  RH WIND       PRES   REMARKS
JACKSON        SUNNY     61  34  36 VRB3      30.13S
LAMBERTVILLE   SUNNY     56  28  33 E5        30.13S
LANSING        SUNNY     62  29  28 W9        30.12F
LAPEER         FAIR      61  32  33 W10       30.12S
MASON          SUNNY     60  37  43 W7        30.12F
MONROE         SUNNY     57  31  37 N5        30.13S
MT. CLEMENS    MOSUNNY   60  33  37 CALM      30.12S
PONTIAC        MOSUNNY   60  33  36 VRB5      30.11F
PORT HOPE        N/A     58  33  39 SW10G18   30.07S
PORT HURON     SUNNY     57  28  33 W6        30.13S
TRI CITIES     SUNNY     60  37  42 SW9       30.11S
MIDLAND        FAIR      62  31  31 SW8       30.09F
TROY           SUNNY     59  28  31 CALM      30.14F
SAGINAW HB     SUNNY     59  30  33 W9        30.10S
$$
MIZ043>046-050>051-056>058-064>065-071>073-077>080-231600-
SOUTHWEST LOWER MICHIGAN

CITY           SKY/WX    TMP DP  RH WIND       PRES   REMARKS
BATTLE CREEK   SUNNY     61  32  33 W5        30.13F
BENTON HARBOR  SUNNY     56  40  55 W6        30.14F
BIG RAPIDS     SUNNY     60  26  27 SW9       30.09F
COLDWATER      SUNNY     59  36  42 NW5       30.13S
FREMONT        FAIR      60  24  25 W9        30.11F
HOLLAND        SUNNY     58  30  34 W6        30.14S
GRAND RAPIDS   MOSUNNY   59  33  37 W9        30.13S
IONIA          FAIR      59  31  34 SW6       30.12S
KALAMAZOO      SUNNY     62  30  29 CALM      30.13F
LUDINGTON      SUNNY     51  37  58 SW6       30.11F
MARSHALL       SUNNY     60  32  34 CALM      30.12F
MUSKEGON       MOSUNNY   57  23  26 SW12      30.14R
SOUTH HAVEN    SUNNY     55  34  45 W3        30.14F
$$
MIZ016>042-231600-
NORTHERN LOWER MICHIGAN

CITY           SKY/WX    TMP DP  RH WIND       PRES   REMARKS
ALPENA         MOSUNNY   54  40  59 N15G23    30.10R
BEAVER ISLAND  CLOUDY    39  33  80 N8        30.16R WCI  33
BELLAIRE       SUNNY     47  37  66 N8        30.12S
CADILLAC       SUNNY     60  31  33 W6        30.08S
CHARLEVOIX     CLOUDY    42  37  81 N7        30.17R
FRANKFORT      SUNNY     48  37  65 N9        30.12R
GAYLORD        CLOUDY    51  33  50 VRB3      30.08S
GRAYLING       SUNNY     57  32  38 W7        30.08S
HARBOR SPRINGS CLOUDY    47  36  65 N12       30.12R
HOUGHTON LAKE  SUNNY     58  31  35 W7        30.08S
MANISTEE       SUNNY     54  37  52 NW8       30.10S
OSCODA         SUNNY     66  31  27 SW14      30.04F
PELLSTON       CLOUDY    45  34  65 N10       30.12R
ROGERS CITY    CLOUDY    47  38  69 W10G17    30.11S
TRAVERSE CITY  MOSUNNY   47  36  65 N15       30.12R
$$
MIZ007>008-015-231600-
EASTERN UPPER MICHIGAN

CITY           SKY/WX    TMP DP  RH WIND       PRES   REMARKS
KINROSS        CLOUDY    35  34  96 NW14      30.11R WCI  26
MACKINAC ISLAN CLOUDY    39  34  81 N9        30.12R WCI  33
NEWBERRY       CLOUDY    33  31  94 N10G18    30.14R WCI  25
S. S. MARIE    CLOUDY    37  34  89 NW13      30.10R WCI  29
MUNISING         N/A     33  30  88 N21       30.19R WCI  21
$$
MIZ004>006-011>014-085-231600-
CENTRAL UPPER MICHIGAN

CITY           SKY/WX    TMP DP  RH WIND       PRES   REMARKS
MANISTIQUE     CLOUDY    36  32  85 N16G24    30.16R WCI  26
ESCANABA       CLOUDY    39  31  72 N10G17    30.18R WCI  32
MENOMINEE      PTSUNNY   42  35  76 E15       30.16R
SAWYER-GWINN   LGT SNOW  30  30 100 N13G20    30.17R VSB 3/4 WCI  20
$$
MIZ001>003-009>011-084-231600-
WESTERN UPPER MICHIGAN

CITY           SKY/WX    TMP DP  RH WIND       PRES   REMARKS
IRON MOUNTAIN  CLOUDY    39  27  62 N8        30.15R WCI  33
HOUGHTON       CLOUDY    32  22  66 NE7       30.20F WCI  26
COPPER HARBOR    N/A     33  23  66 NE15      30.23R WCI  23
IRONWOOD       CLOUDY    36  32  85 NE9       30.18F WCI  29
$$

ABBREVIATIONS USED IN REMARKS
   TC - TEMPERATURE IN CELSIUS
  WCI - WIND CHILL INDEX
   HX - HEAT INDEX
  VSB - VISIBILITY





USA.gov is the U.S. government's official web portal to all federal, state and local government web resources and services.